Weather in Vesnovo

Russia / Kaliningrad Oblast     54°45′19″N   22°20′49″E
temp.,
°C
wind,
m/s
gust,
m/s
humid.,
%
clouds,
%
prec.,
mm/h
press.,
hPa
HPBL,
m
12 may, wed
wed1223:00+15se6147130 0.0 1015412
02:00+12se512755 0.0 1014289
05:00+11ese512815 0.0 1014244
08:00+16se6157714 0.0 1014594
11:00+21se812645 0.0 10131167
14:00+23se8106389 0.0 10131700
17:00+21ese7107114 0.3 10111101
20:00+15ese613710 0.3 1012396
13 may, thu
thu1323:00+11ese411830 0.0 1011217
02:00+9ese36840 0.0 101093
05:00+9ese22855 0.0 100811
08:00+13ene4672100 0.0 1007325
11:00+12ne2584100 0.3 1005374
14:00+15ne567854 0.8 1003834
17:00+11ne6885100 0.4 1002750
20:00+10ne368598 0.4 1001536
14 may, fri
fri1423:00+8ene239079 0.0 1000197
02:00+9se1394100 0.3 1000183
05:00+10sse3596100 0.1 999373
08:00+11sse2491100 0.3 1000403
11:00+12sw358551 0.3 1001511
14:00+16sw566553 0.4 10011371
17:00+14w56687 0.0 1002945
20:00+11w34860 0.0 100353
15 may, sat
sat1523:00+7nw22962 0.0 100532
02:00+6w22976 0.0 100532
05:00+5w34977 0.0 100685
08:00+10w34835 0.0 1007400
11:00+15w346730 0.0 10081039
14:00+16wsw3462100 0.0 10081430
17:00+15w337839 0.3 1008520
20:00+13nw348753 0.4 100865
16 may, sun
sun1623:00+9nnw1191100 0.0 100910
02:00+8ene1191100 0.0 100910
05:00+8ese22945 0.0 100918
08:00+14se348278 0.0 1009344
11:00+18sse456596 0.1 10081471
14:00+19ese355973 0.1 10071441
17:00+19ese576897 0.4 1006883
20:00+15se41184100 0.9 1005342